Vertical_Velocity
-2 1 -1 -2 24 2 2 -3 -6 -2 -0 -1 -3 -4 1 -2 -3 7 -3 -4 -0 0 -2 -1 -1 -1 1 1 0 1 1 0 1 -0 0 -0 0 -0 -0 0 1 1 0 -0 0 1 1 2 0
-1 -0 -0 1 13 11 0 -2 0 -2 -2 -2 -2 -2 -1 0 -1 -3 -1 -2 1 1 2 1 -1 -0 1 1 1 2 1 2 2 2 2 1 1 2 1 -0 -0 0 -0 -0 -1 -1 -1 -1 -1
-2 -2 1 1 -6 10 8 -2 -0 -2 -1 -1 1 -1 -1 -1 -1 -2 -2 -2 0 -0 -0 1 1 1 -1 -2 -2 -2 -0 0 1 -0 -0 -0 -1 -1 1 1 0 -0 -0 0 -0 -1 -1 0 1
-0 2 -0 10 1 -6 -1 -3 -4 -2 -1 -1 -2 1 1 -1 -1 -1 1 -0 -3 -2 -1 0 1 -1 -4 -2 -1 -1 0 0 -1 -1 -1 -1 1 1 0 -0 -1 -1 0 -0 -0 -1 -1 -1 -1
1 -1 16 -3 -2 -3 -4 -4 -3 -1 -2 -1 -0 -0 -1 -3 0 -2 -5 0 4 1 2 1 2 2 2 -1 0 -1 -1 0 -1 -1 -1 0 1 0 0 0 -0 -0 1 0 -0 -0 -1 -2 -1
6 -7 10 3 2 -2 -1 -2 0 -1 -1 0 -1 -0 -0 -1 -1 1 -1 -1 -2 -1 0 2 1 0 1 2 3 -0 -1 -1 -1 -0 -1 -0 -1 -1 -1 -0 1 1 1 1 0 0 -0 -0 -0
4 -1 -4 -0 0 0 0 0 -1 1 2 2 1 1 0 -1 -2 0 -4 -4 0 -1 -3 -1 -1 -1 1 1 0 0 -0 -1 -1 -1 -1 -1 1 1 1 1 1 0 -0 -0 -0 -0 -1 -1 -0
-2 -3 -0 -7 2 6 -1 -2 0 3 3 0 3 2 -4 -1 -1 1 1 1 -2 -1 -0 -3 -3 -1 -1 1 1 -1 -2 -1 -1 -2 -1 -0 -1 1 1 -0 -1 -1 -0 -0 -0 -1 -1 -2 -3
-3 5 9 3 5 -1 -1 -1 -1 -2 -1 -0 -0 1 2 2 2 3 3 1 0 -2 -1 -0 -3 -2 -0 -0 -0 1 -0 -0 -0 -0 -1 -0 -0 -1 -1 0 -1 -2 -1 -0 -1 -1 -2 -1 -1
-1 -2 1 -5 -2 3 0 1 -2 -2 -0 -0 -2 -1 -1 0 0 3 4 1 2 1 -2 -0 -2 -1 -1 -1 -0 1 1 1 1 0 -0 -1 -1 -1 -0 -1 -0 -0 -1 -1 -1 -2 -0 -1 -1
-0 14 -2 -1 -3 -1 1 2 2 1 1 5 -0 -0 -1 0 1 -0 0 0 -1 1 -0 0 2 -0 0 -1 1 -1 -0 1 1 0 0 -1 -0 1 0 0 -0 0 -1 -1 -1 -1 -0 -2 -2
4 -3 -2 -2 -2 -4 2 3 1 1 13 -1 -1 -0 -0 0 -0 0 3 2 2 -1 0 0 1 0 -1 1 -1 1 -0 -0 -1 1 1 0 -1 -0 0 0 0 -1 -1 -1 -1 -1 -2 -2 -2
0 2 0 -1 -1 -0 -3 -1 2 0 -2 -0 -2 0 -2 -2 -0 -3 -2 -5 2 1 -0 -1 1 2 -1 -0 -1 0 -0 -1 -0 0 0 0 -0 -0 0 -0 -0 0 -0 -1 -1 -2 -2 -2 -2
-7 -3 -2 -3 -3 -3 -3 -2 -4 1 -1 -0 -0 -0 1 1 -0 2 5 3 -6 -2 -2 -1 1 1 0 -1 -0 -0 0 0 -0 0 -0 -0 -0 -1 -0 -0 -0 -0 -0 -0 -1 -1 -2 -2 -3
-2 1 -3 -2 -2 -1 0 -4 -3 -4 -2 -2 -3 -1 -2 0 -1 0 0 4 -0 -3 -1 -1 -2 0 1 -1 -1 -2 1 0 -0 0 0 -0 -0 0 1 -0 -1 -1 -1 -0 -0 -2 -2 -3 -4
2 -13 10 -4 -4 -5 -2 30 0 -1 -1 -0 -1 -2 0 3 -0 -3 -2 -1 2 -2 -1 1 -0 -1 -0 -1 -1 -1 -1 1 1 0 -0 -0 -0 0 0 -0 -0 -1 -1 -3 -2 -2 -3 -3 -2
-10 7 -0 4 -8 5 -1 15 -4 3 3 -1 1 0 -3 2 -1 -0 -0 0 0 -1 -0 -1 -1 -0 0 0 -1 -1 -1 -0 1 0 0 0 -0 -0 0 0 1 1 0 -1 -1 0 -0 -2 -2
19 0 7 -10 17 -3 5 -4 0 -1 3 5 1 -1 -2 0 -1 1 -1 0 -1 -2 0 0 -1 -1 1 -0 -1 -2 -1 -0 -0 -0 0 0 0 -0 0 1 -0 0 0 1 -1 -1 -3 2 0
-13 -6 -1 -5 28 -5 -1 -3 8 2 -5 -3 -1 1 -2 3 0 -0 -3 -1 -1 -0 0 -1 -1 0 0 -1 -1 -2 -2 -1 -1 -1 0 -0 0 0 1 0 -1 1 -0 -2 0 -1 1 -0 4
2 -0 -7 2 -8 -3 7 -8 14 -2 5 -3 -4 2 6 2 -4 -2 3 1 1 -1 -2 -0 -1 -0 1 0 -2 -0 -1 -1 -0 -1 -1 -0 -0 -0 -0 -0 0 -1 -2 -1 -1 -1 2 -3 -4
-2 -1 3 -3 -3 -9 -3 -16 7 -2 1 4 -2 -1 -0 3 0 1 -1 0 0 -1 -2 -3 -2 -1 -1 -1 -1 -1 -2 -2 -2 -1 0 -0 -1 -1 -0 -0 -2 -1 -1 -1 -2 -1 1 -0 -2
2 17 -2 0 -3 22 -4 -11 -12 8 4 -6 6 1 5 2 4 4 -5 -5 -1 2 -4 -3 -2 -2 -1 -2 -2 -2 -2 -1 -1 -1 -1 -1 -0 -0 -1 -0 -1 -1 -1 -1 -2 -1 -2 2 -2
-12 -2 2 0 -3 -1 15 4 1 -15 -14 -9 -8 7 5 5 5 4 2 -2 0 -2 1 -0 -3 -1 -3 -1 -2 -2 -3 -2 -0 -1 -1 0 -1 -2 -2 -1 -1 -1 -1 -1 -1 -2 0 -3 1
2 0 1 -4 -1 10 -11 16 -28 4 7 16 2 1 7 0 3 10 5 -2 -4 -2 -4 -2 -2 -2 -2 -2 -1 -2 -2 -1 -2 -1 -1 -1 -1 -1 -1 -1 -1 -1 -2 -4 -2 -3 1 1 -2
1 4 1 9 12 -10 8 -1 -16 8 -7 2 4 -0 2 4 4 12 2 -5 -1 -1 -2 -0 1 -0 1 0 -1 -1 -1 -2 -2 -0 -1 -2 -3 -2 -0 -0 -2 -1 -0 -2 -2 0 -1 -2 -0
-4 8 -1 -2 1 -5 -15 -5 14 -5 -4 -0 1 -1 -3 0 2 4 2 0 -3 0 3 3 3 1 1 1 2 1 -1 -2 0 -0 -2 -2 -1 -0 -1 -1 -1 -2 -2 -1 -1 -1 -2 -0 -2
-3 -3 5 3 -7 7 -12 -12 -15 -2 -1 4 -0 2 -2 2 0 5 -1 -2 -2 2 3 -2 7 3 4 2 1 2 1 1 1 0 0 -1 -1 -2 -2 -1 -2 -2 -2 -1 -2 -0 -3 -2 -1
-7 17 1 0 0 -0 -7 -4 -9 4 0 -1 1 4 -0 -2 2 4 3 3 4 3 1 1 6 1 3 2 4 4 1 1 0 0 -1 -3 -1 -1 0 -1 -1 -1 -2 -1 -1 -3 -3 -2 -3
-3 -3 -3 5 5 2 -0 -5 -13 -2 -4 -0 1 1 6 4 2 -2 -3 3 1 -1 2 2 1 -2 2 4 2 4 2 2 2 -0 -0 -4 -0 -1 -1 -1 -2 -1 -1 -1 -1 -2 -0 -1 -2
-5 4 6 12 -6 -6 3 -27 4 -7 -4 -2 -0 -1 -1 0 1 1 1 2 2 2 1 1 -1 0 4 2 3 3 2 3 2 1 0 -0 -1 -1 -2 0 -1 -2 -2 -2 -3 -0 -1 -1 -1
Height
3186 3185 3187 3189 3195 3191 3192 3194 3193 3192 3192 3192 3191 3191 3193 3191 3192 3197 3194 3194 3194 3194 3194 3195 3195 3193 3193 3192 3192 3192 3191 3191 3191 3191 3190 3189 3189 3188 3188 3187 3187 3187 3186 3186 3185 3185 3184 3183 3182
3188 3187 3189 3190 3193 3188 3193 3193 3194 3193 3193 3192 3193 3193 3193 3193 3191 3192 3193 3193 3194 3195 3194 3195 3194 3194 3193 3192 3192 3191 3191 3190 3190 3189 3189 3188 3187 3187 3187 3187 3186 3186 3186 3186 3185 3184 3183 3182 3182
3189 3190 3193 3193 3192 3190 3192 3194 3193 3192 3192 3192 3193 3194 3194 3194 3193 3193 3194 3194 3195 3195 3195 3195 3194 3193 3192 3192 3191 3190 3190 3190 3189 3189 3189 3187 3187 3186 3186 3186 3185 3185 3185 3184 3184 3183 3183 3182 3181
3190 3192 3193 3194 3192 3192 3193 3193 3192 3192 3192 3193 3193 3194 3195 3194 3194 3194 3195 3195 3195 3195 3194 3194 3194 3193 3193 3192 3191 3191 3191 3191 3190 3189 3188 3188 3188 3188 3186 3186 3186 3185 3185 3184 3184 3183 3182 3181 3181
3192 3193 3194 3193 3192 3191 3191 3191 3191 3192 3192 3192 3193 3194 3194 3194 3195 3195 3194 3195 3196 3195 3194 3194 3193 3193 3193 3193 3192 3191 3190 3191 3191 3190 3189 3189 3189 3189 3188 3187 3187 3186 3185 3185 3184 3183 3182 3181 3180
3195 3193 3193 3192 3192 3190 3189 3190 3191 3191 3191 3192 3192 3193 3193 3194 3196 3196 3196 3196 3195 3195 3195 3194 3193 3193 3194 3194 3194 3192 3191 3191 3191 3191 3190 3190 3190 3190 3189 3188 3187 3186 3186 3185 3184 3183 3183 3182 3181
3195 3195 3194 3193 3193 3191 3190 3190 3190 3191 3191 3191 3192 3192 3193 3193 3195 3196 3197 3196 3196 3195 3195 3194 3193 3193 3192 3193 3193 3193 3192 3192 3192 3191 3191 3191 3190 3190 3190 3189 3189 3188 3187 3186 3185 3184 3183 3182 3181
3193 3194 3194 3194 3194 3194 3191 3190 3191 3192 3193 3192 3192 3192 3193 3193 3194 3195 3196 3197 3196 3195 3194 3194 3193 3192 3192 3192 3193 3193 3193 3192 3192 3191 3191 3191 3191 3191 3191 3191 3190 3189 3188 3187 3186 3185 3184 3182 3181
3193 3195 3193 3194 3194 3193 3191 3191 3191 3191 3191 3191 3191 3191 3192 3192 3193 3195 3195 3196 3196 3195 3194 3193 3193 3192 3191 3191 3191 3192 3192 3191 3191 3191 3191 3191 3191 3191 3191 3191 3191 3190 3189 3188 3186 3185 3184 3182 3181
3193 3194 3194 3193 3192 3192 3189 3190 3189 3190 3190 3190 3190 3191 3191 3192 3192 3194 3195 3195 3195 3194 3194 3193 3192 3192 3192 3191 3191 3191 3191 3191 3192 3192 3192 3192 3192 3191 3192 3191 3190 3190 3189 3188 3187 3186 3184 3183 3181
3194 3194 3193 3192 3191 3190 3188 3188 3188 3189 3190 3191 3190 3190 3190 3191 3191 3193 3194 3194 3194 3194 3193 3192 3192 3192 3192 3192 3192 3192 3192 3192 3192 3192 3192 3192 3192 3192 3192 3191 3191 3191 3190 3189 3188 3186 3185 3183 3182
3194 3192 3192 3191 3190 3188 3187 3187 3187 3189 3191 3189 3189 3189 3189 3189 3190 3192 3193 3194 3193 3193 3192 3192 3192 3192 3192 3192 3192 3192 3193 3193 3192 3192 3193 3192 3192 3193 3193 3192 3192 3191 3191 3189 3188 3187 3185 3183 3181
3193 3192 3191 3189 3188 3187 3186 3186 3188 3188 3187 3187 3187 3188 3188 3188 3189 3189 3190 3192 3193 3192 3191 3191 3192 3192 3192 3192 3193 3192 3193 3193 3193 3193 3193 3193 3192 3192 3192 3192 3192 3191 3190 3189 3188 3186 3184 3182 3180
3192 3191 3191 3189 3187 3187 3186 3186 3185 3187 3185 3185 3186 3186 3187 3187 3188 3189 3190 3189 3190 3190 3190 3191 3191 3191 3192 3192 3192 3192 3192 3193 3193 3193 3193 3192 3192 3192 3192 3192 3191 3190 3189 3188 3186 3184 3182 3180 3178
3190 3192 3190 3189 3187 3187 3186 3185 3184 3184 3184 3184 3184 3185 3186 3187 3187 3188 3188 3188 3188 3189 3189 3189 3190 3190 3191 3191 3192 3192 3192 3192 3192 3193 3193 3192 3192 3192 3191 3191 3190 3189 3188 3186 3184 3182 3180 3178 3176
3191 3191 3189 3187 3186 3186 3186 3183 3184 3182 3182 3183 3183 3184 3185 3185 3186 3186 3187 3187 3187 3187 3187 3187 3188 3189 3190 3190 3191 3191 3191 3191 3192 3192 3192 3192 3192 3191 3191 3190 3189 3188 3186 3184 3182 3180 3178 3175 3173
3187 3185 3185 3187 3185 3185 3184 3183 3183 3181 3181 3182 3182 3183 3183 3184 3184 3184 3185 3186 3186 3186 3185 3186 3187 3188 3189 3189 3190 3190 3191 3191 3191 3191 3191 3191 3191 3191 3190 3189 3187 3185 3184 3182 3180 3178 3175 3172 3169
3181 3183 3184 3185 3184 3182 3183 3181 3180 3179 3179 3180 3180 3181 3182 3183 3183 3183 3183 3183 3184 3184 3184 3184 3184 3186 3187 3188 3188 3189 3189 3189 3189 3189 3189 3189 3189 3189 3188 3187 3185 3184 3183 3180 3177 3175 3171 3169 3165
3182 3183 3182 3182 3182 3180 3179 3178 3178 3176 3175 3177 3178 3178 3180 3181 3181 3181 3181 3181 3182 3183 3182 3182 3183 3184 3185 3186 3186 3187 3187 3187 3188 3188 3187 3187 3187 3186 3186 3184 3183 3182 3180 3178 3175 3172 3169 3166 3163
3180 3180 3179 3178 3177 3177 3176 3174 3174 3172 3171 3174 3175 3175 3177 3177 3178 3178 3178 3179 3180 3181 3181 3181 3181 3182 3184 3184 3185 3185 3185 3186 3186 3186 3185 3185 3185 3184 3183 3182 3181 3179 3177 3174 3171 3169 3166 3161 3157
3177 3177 3176 3176 3174 3172 3172 3170 3167 3168 3169 3169 3170 3172 3172 3173 3174 3175 3176 3177 3177 3179 3180 3180 3181 3182 3183 3183 3183 3183 3183 3183 3183 3183 3183 3183 3182 3181 3180 3179 3177 3175 3173 3170 3167 3165 3162 3158 3152
3174 3174 3174 3173 3173 3168 3170 3163 3164 3163 3166 3166 3166 3168 3168 3169 3170 3172 3172 3174 3175 3177 3178 3179 3179 3180 3181 3182 3182 3181 3181 3181 3180 3180 3180 3180 3179 3179 3177 3176 3174 3171 3169 3166 3164 3161 3156 3153 3147
3171 3170 3171 3171 3170 3170 3166 3167 3161 3161 3164 3165 3164 3164 3164 3164 3165 3166 3168 3171 3173 3175 3176 3177 3178 3178 3179 3180 3180 3180 3179 3178 3178 3178 3177 3177 3177 3175 3174 3172 3170 3168 3165 3162 3159 3155 3151 3147 3142
3167 3168 3168 3168 3168 3166 3163 3163 3159 3158 3158 3159 3158 3158 3157 3158 3159 3161 3164 3166 3169 3171 3173 3174 3175 3176 3177 3177 3177 3177 3177 3176 3176 3176 3175 3175 3174 3172 3171 3169 3167 3164 3160 3157 3153 3149 3145 3140 3135
3162 3165 3164 3161 3160 3160 3160 3161 3156 3155 3153 3152 3152 3151 3150 3150 3150 3152 3157 3162 3165 3168 3170 3171 3172 3173 3174 3174 3174 3174 3175 3174 3174 3174 3173 3172 3171 3169 3167 3164 3162 3159 3155 3152 3148 3143 3139 3133 3128
3160 3161 3161 3158 3154 3153 3157 3155 3151 3150 3149 3147 3147 3147 3145 3143 3142 3147 3154 3159 3162 3165 3166 3168 3169 3170 3170 3170 3170 3170 3172 3172 3171 3171 3170 3169 3167 3165 3162 3160 3157 3154 3151 3147 3142 3137 3132 3126 3120
3157 3158 3159 3158 3158 3157 3154 3150 3149 3147 3145 3144 3144 3144 3143 3142 3145 3148 3152 3156 3159 3161 3162 3164 3164 3165 3165 3165 3165 3167 3168 3168 3168 3167 3166 3165 3163 3160 3158 3156 3153 3149 3146 3142 3136 3131 3125 3120 3114
3152 3156 3157 3157 3156 3151 3146 3146 3145 3145 3143 3142 3142 3142 3143 3144 3145 3148 3150 3153 3156 3157 3158 3159 3159 3160 3161 3160 3161 3163 3164 3164 3164 3163 3162 3161 3159 3156 3154 3151 3148 3144 3140 3135 3130 3125 3120 3114 3108
3147 3149 3151 3151 3150 3145 3142 3141 3141 3143 3142 3141 3141 3141 3141 3143 3144 3147 3149 3150 3151 3153 3154 3155 3156 3156 3156 3155 3156 3158 3160 3160 3161 3160 3159 3157 3155 3152 3149 3146 3142 3139 3134 3130 3125 3120 3115 3109 3102
3140 3142 3145 3146 3146 3145 3144 3140 3138 3140 3140 3140 3139 3139 3140 3140 3141 3142 3143 3145 3147 3148 3149 3150 3152 3151 3150 3150 3151 3153 3155 3156 3156 3156 3154 3152 3150 3147 3144 3141 3137 3134 3129 3124 3120 3114 3108 3102 3095